Wetbulb
25.64 20.76 16.85 20.05 22.76 22.97 21.55 19.98 18.93 21.35 25.65 23.18 21.68 22.67 25.94 29.40 30.09 29.73 30.85 34.28 37.49 39.88 42.70 42.38 43.72 45.06 45.06 55.47 58.06 59.42 60.36 60.71 59.92 58.35 56.77 57.04 56.69 56.60 56.85 57.07 56.21 53.73 51.73 50.35
21.39 16.14 23.54 26.14 25.69 23.43 21.47 18.40 17.18 21.65 24.78 23.13 21.61 20.92 25.24 27.48 28.31 29.87 30.58 32.07 34.16 36.50 40.69 42.77 43.61 43.49 44.50 51.73 57.37 58.32 59.16 59.61 59.58 58.58 57.19 56.39 56.47 56.22 56.49 55.85 53.92 53.36 50.46 49.80
18.95 20.67 26.31 24.33 23.53 21.60 21.54 19.92 19.51 18.57 22.48 23.72 20.84 17.25 20.86 26.02 28.21 30.03 31.47 32.81 34.25 34.65 36.28 38.79 41.50 43.07 44.45 49.03 55.98 57.86 58.50 58.87 58.88 58.16 56.96 55.72 55.63 54.90 53.76 51.91 51.73 51.17 50.43 49.65
19.00 25.26 24.18 22.36 21.43 23.32 18.60 24.86 23.50 21.85 20.11 12.22 20.52 8.41 18.03 22.59 24.06 27.38 29.83 30.99 31.94 33.82 36.83 38.67 39.12 41.57 42.84 46.05 53.77 57.44 58.19 58.09 58.89 57.80 56.32 55.24 53.66 51.96 53.00 51.87 52.34 50.94 50.54 49.34
18.00 21.28 21.24 19.34 21.64 25.30 21.05 25.43 22.30 21.73 18.68 16.33 15.08 11.18 15.37 21.24 20.05 23.50 27.48 30.30 31.61 33.92 35.85 37.51 38.21 40.62 42.36 44.26 50.30 53.36 56.51 57.58 58.02 56.85 56.84 56.01 55.19 54.74 53.82 52.72 51.42 50.62 49.34 48.76
21.82 27.37 23.46 20.91 25.76 25.20 26.26 22.65 20.11 18.99 12.28 6.51 14.27 12.16 12.78 16.27 20.28 23.46 27.46 29.46 31.69 33.48 34.91 37.29 39.84 39.93 43.85 45.65 46.65 48.86 51.54 55.96 56.77 56.07 55.90 55.52 54.99 53.71 52.25 51.57 50.15 50.13 48.78 47.86
18.39 19.04 24.58 27.19 15.59 20.94 20.36 17.42 5.75 -0.67 -2.33 1.47 17.32 14.80 15.31 21.14 23.11 25.90 27.07 28.72 30.23 32.06 34.01 36.28 37.73 37.04 38.63 41.29 44.85 47.54 49.87 52.17 54.33 54.92 54.65 54.78 54.38 53.60 52.57 51.27 50.73 49.63 48.20 47.33
6.39 7.41 18.30 24.33 18.98 17.85 15.62 17.63 11.54 2.45 4.34 6.88 18.29 9.56 16.34 21.57 23.50 26.15 28.16 28.39 29.09 29.12 29.58 29.75 30.29 31.95 32.86 33.69 34.44 37.02 39.48 47.92 51.86 53.89 53.95 54.16 54.10 53.88 53.42 52.04 51.57 49.97 48.88 48.70
11.21 9.81 22.26 22.54 22.97 22.69 16.75 9.42 19.23 12.84 6.99 7.77 11.00 17.23 19.85 21.52 19.87 21.91 23.86 26.65 27.31 27.34 28.06 28.77 28.92 29.36 29.77 30.34 31.18 32.18 33.62 35.42 38.18 40.32 50.16 52.40 52.62 52.71 52.92 52.71 51.99 50.68 49.83 48.84
16.93 9.93 19.50 21.67 21.09 23.73 21.68 24.12 8.16 6.17 1.13 -2.19 7.31 9.62 9.08 13.85 15.54 18.66 19.86 22.72 25.22 26.64 27.12 28.44 29.28 29.70 30.55 30.68 30.05 31.15 32.60 32.93 34.05 35.61 38.37 44.30 51.58 51.57 51.51 50.83 51.06 50.75 49.99 48.24
18.51 13.01 11.39 13.89 4.71 9.51 16.21 12.71 14.87 14.93 11.50 1.27 5.17 5.53 17.16 15.36 17.32 16.89 19.33 22.76 23.50 24.75 25.73 27.54 29.11 29.68 29.47 29.47 29.24 27.31 30.05 31.28 31.86 33.58 35.40 36.58 40.72 49.78 49.01 49.42 48.12 43.81 39.49 40.31
17.17 16.70 -0.45 6.75 18.07 19.02 21.02 18.05 17.48 8.24 3.01 7.43 8.90 7.54 19.64 18.38 18.79 19.35 19.32 21.16 22.20 23.56 24.29 26.06 28.13 28.33 28.65 29.22 28.20 29.20 30.45 31.01 32.06 32.28 33.49 34.38 36.19 39.22 40.76 42.23 39.87 39.53 41.20 40.27
20.65 16.27 9.35 4.42 11.40 18.57 13.49 18.60 18.99 15.71 14.74 5.42 6.48 4.48 18.97 18.51 17.65 18.79 18.22 18.69 20.24 21.63 22.80 24.04 26.40 26.66 27.27 28.06 28.73 29.01 29.83 30.37 31.67 32.43 33.01 33.66 34.22 35.18 35.81 36.93 37.10 38.13 39.33 39.51
26.25 8.28 11.22 7.22 10.37 12.92 13.11 15.65 17.76 13.15 6.40 7.14 6.26 7.91 12.49 15.11 15.05 16.49 17.67 18.60 18.38 18.67 19.79 21.79 23.29 24.73 25.78 26.86 27.56 28.28 28.92 30.00 30.87 31.83 32.17 32.35 32.76 33.48 33.75 33.86 34.11 35.99 37.12 37.21
21.90 13.10 6.38 12.65 13.67 14.61 14.83 14.74 14.79 7.45 10.97 7.76 10.66 8.18 12.09 15.54 14.96 15.90 17.50 17.61 17.18 17.52 18.31 18.98 20.66 22.96 23.95 24.90 26.39 27.70 28.49 29.09 29.73 29.26 29.42 30.32 32.12 32.79 33.24 33.41 33.26 33.53 33.77 34.54
19.58 11.85 7.51 11.09 14.11 13.67 16.41 15.88 15.56 13.52 11.64 10.98 11.98 10.98 17.16 18.96 17.27 15.30 15.85 16.21 15.35 15.96 17.75 18.98 20.44 21.79 22.42 23.74 25.39 26.58 27.24 27.83 28.53 27.91 27.47 28.26 29.23 30.69 31.66 32.45 32.47 32.74 33.06 33.35
16.46 13.75 7.66 1.44 9.27 12.54 10.01 12.11 13.79 10.97 11.31 10.43 6.44 12.96 16.59 15.83 14.35 14.07 15.01 16.00 15.49 15.95 17.11 18.33 19.62 20.82 22.49 23.46 25.76 24.82 25.43 26.16 25.43 25.61 26.24 27.24 27.57 27.71 28.55 30.17 30.95 31.34 32.21 32.27
7.94 14.91 14.00 3.69 6.42 2.84 14.78 19.22 18.42 14.62 13.83 14.39 14.74 15.10 15.81 16.43 16.00 16.46 17.63 16.06 16.40 16.66 17.37 18.16 19.63 20.25 21.08 23.42 24.48 23.91 23.48 23.57 22.18 22.69 23.36 24.34 25.98 26.64 27.11 27.53 28.07 28.70 29.35 30.26
21.27 18.78 11.88 5.50 -5.00 10.58 17.49 14.70 13.25 13.18 12.31 13.41 12.21 13.27 12.41 15.94 17.55 14.67 17.69 17.59 16.67 17.51 18.76 18.95 20.03 19.83 19.95 20.44 23.07 21.98 20.88 21.30 20.16 19.57 19.44 20.38 21.79 21.83 24.57 25.70 26.33 27.23 27.90 28.23
17.92 18.11 15.15 5.08 2.76 -0.91 9.75 13.70 18.80 16.34 6.73 9.01 9.05 5.85 6.46 16.37 4.30 7.15 10.28 8.73 9.88 12.02 16.81 17.11 18.10 18.54 18.63 19.33 21.47 20.08 18.66 18.42 18.17 19.44 20.08 20.37 19.62 18.55 18.85 21.67 23.93 26.03 27.17 27.54
-3.58 -5.21 7.33 7.35 7.23 7.27 16.61 17.85 20.93 6.57 6.80 6.19 11.08 8.95 12.28 10.33 10.51 9.22 7.16 6.42 4.78 5.55 6.91 11.34 12.58 13.29 15.09 18.33 19.68 17.35 16.89 16.24 18.42 18.57 17.58 17.99 18.54 19.19 19.52 18.52 20.22 20.60 22.44 24.46
3.48 0.95 -1.26 3.11 -2.67 2.45 17.93 19.08 10.67 10.88 6.25 12.65 17.87 10.18 9.55 5.75 6.56 7.33 8.05 9.19 9.74 8.49 10.09 11.06 9.57 10.31 10.26 14.78 15.73 14.59 14.07 16.41 16.10 15.62 15.20 15.05 14.29 18.72 18.90 13.56 16.78 16.81 19.05 19.94
6.64 12.14 9.57 11.02 7.75 13.12 13.49 15.25 10.83 8.61 11.20 12.23 17.16 13.80 16.09 14.41 12.70 14.09 13.29 13.85 14.35 13.80 12.79 11.68 8.20 7.67 7.84 10.47 11.31 10.49 12.09 13.01 13.17 12.47 11.92 11.49 13.32 17.31 17.60 14.58 14.87 15.55 17.51 19.40
15.47 16.56 13.17 11.92 13.62 13.70 14.27 15.47 16.24 15.83 17.55 19.65 19.27 17.93 16.74 14.27 13.36 12.51 13.63 13.18 12.69 13.70 12.13 12.02 9.19 8.56 8.73 9.50 11.74 9.52 11.49 11.32 8.01 8.69 12.46 13.54 13.48 14.53 14.56 18.27 18.69 17.12 17.32 17.94
17.46 19.12 15.73 14.90 19.31 15.90 17.82 20.10 19.41 18.47 17.88 18.95 18.40 16.15 15.01 14.44 11.87 11.30 13.02 12.95 12.42 12.73 12.38 10.62 8.74 9.20 8.20 8.43 8.13 4.86 7.95 6.91 7.93 10.66 13.68 14.73 14.56 12.28 15.04 16.90 16.50 19.09 19.79 20.70
19.53 17.10 14.23 13.56 19.87 20.26 20.32 21.61 21.39 19.43 18.66 18.84 17.74 14.79 15.22 15.07 13.44 13.21 12.46 12.22 11.17 10.06 10.35 8.56 7.05 6.27 5.73 3.79 3.52 2.99 0.22 -0.35 -0.74 7.78 10.59 12.06 13.42 11.69 14.13 13.51 15.47 22.63 23.35 24.48
MSLP
1015.08 1015.20 1014.89 1014.20 1014.16 1013.49 1013.19 1012.60 1011.40 1010.05 1009.11 1009.11 1007.65 1006.92 1006.03 1004.70 1004.08 1003.34 1002.94 1001.86 1001.05 1000.59 1000.09 999.47 999.50 999.69 999.99 999.83 1000.29 1000.74 1001.36 1002.36 1003.39 1004.11 1004.66 1005.33 1005.82 1006.84 1007.58 1008.30 1008.61 1009.11 1010.06 1011.03
1015.84 1014.95 1013.60 1013.51 1013.20 1012.70 1012.28 1011.69 1010.33 1009.04 1008.23 1008.50 1007.31 1006.16 1005.54 1004.43 1003.42 1002.75 1002.26 1001.95 1001.56 1000.32 999.61 999.48 999.06 999.06 999.44 999.69 999.54 1000.07 1000.56 1001.68 1002.69 1003.69 1004.27 1004.94 1005.69 1006.55 1006.99 1007.93 1008.47 1009.09 1009.77 1010.40
1016.31 1014.19 1013.58 1013.23 1012.51 1011.88 1011.12 1010.46 1009.37 1009.04 1007.75 1007.39 1006.90 1005.97 1004.86 1003.54 1002.51 1001.98 1001.35 1001.12 1000.75 1000.15 999.60 999.30 998.98 998.63 998.64 999.07 999.13 999.39 1000.03 1000.79 1001.74 1002.73 1003.83 1004.77 1006.08 1006.39 1007.14 1007.82 1008.49 1008.84 1009.26 1009.67
1015.20 1013.74 1013.36 1012.72 1011.83 1011.14 1010.05 1009.51 1009.39 1008.76 1007.92 1006.82 1006.86 1005.30 1003.65 1002.36 1001.53 1001.10 1000.58 1000.28 1000.04 999.57 999.06 998.80 998.58 998.39 998.05 998.06 998.44 998.87 999.76 1000.35 1001.10 1002.11 1002.87 1003.69 1004.82 1005.83 1006.10 1006.74 1007.55 1008.36 1009.02 1009.61
1014.41 1013.81 1012.97 1012.17 1011.18 1010.44 1009.60 1009.39 1009.10 1008.59 1007.83 1007.60 1005.93 1006.01 1001.40 1002.54 1001.28 1000.47 999.86 999.45 999.12 998.73 998.62 998.36 998.20 998.16 997.54 997.40 997.71 998.32 999.09 1000.18 1000.91 1001.48 1002.25 1002.91 1003.67 1004.28 1005.37 1006.43 1007.26 1007.93 1008.63 1009.21
1014.98 1013.48 1012.74 1011.49 1010.57 1010.51 1009.56 1009.24 1008.45 1008.29 1008.11 1007.58 1004.60 1006.21 1001.60 1002.13 1001.33 1000.13 999.61 999.16 998.88 998.55 998.23 998.03 997.63 997.74 997.83 997.62 997.98 998.04 998.69 999.53 1000.38 1001.02 1001.52 1002.18 1002.84 1003.94 1004.72 1005.67 1006.71 1007.33 1008.00 1008.68
1014.21 1013.15 1011.79 1010.80 1011.20 1010.47 1010.19 1009.55 1009.31 1009.51 1008.94 1006.81 1004.97 1004.91 1003.03 1003.41 1003.01 1001.95 1000.38 999.79 999.31 999.31 998.87 998.12 997.98 998.17 998.20 998.16 998.28 998.47 998.96 999.49 1000.34 1000.85 1001.37 1001.69 1002.38 1003.04 1003.71 1004.61 1005.61 1006.64 1007.36 1007.89
1016.10 1012.18 1012.68 1011.50 1012.13 1011.46 1010.52 1010.49 1010.31 1010.03 1009.01 1006.51 1004.92 1004.32 1004.71 1004.87 1004.36 1003.18 1002.28 1001.56 1001.36 1000.82 1000.47 1000.79 1000.86 1000.46 1000.50 1000.50 1000.35 1000.03 1000.30 1000.41 1000.50 1000.75 1001.09 1001.58 1002.04 1002.63 1003.07 1004.00 1004.71 1005.52 1006.14 1006.63
1017.09 1014.36 1013.20 1011.83 1011.60 1011.48 1010.81 1010.51 1010.36 1009.95 1008.39 1007.34 1005.22 1004.40 1004.39 1004.52 1004.76 1004.50 1003.89 1003.29 1002.78 1002.65 1001.78 1002.22 1002.41 1002.96 1002.06 1001.86 1002.22 1002.14 1001.85 1002.00 1001.97 1001.97 1001.85 1001.82 1002.03 1002.31 1002.61 1003.34 1004.11 1004.68 1005.49 1006.18
1017.55 1014.94 1013.13 1012.11 1011.59 1011.01 1011.19 1010.59 1010.66 1010.53 1009.68 1008.32 1006.22 1006.49 1007.03 1006.38 1006.16 1006.08 1005.49 1004.91 1004.57 1004.10 1003.07 1003.76 1003.62 1003.61 1002.80 1002.81 1003.11 1003.12 1002.77 1002.93 1003.05 1002.97 1002.85 1002.57 1001.92 1002.03 1002.52 1003.05 1003.46 1003.96 1004.68 1005.64
1017.23 1016.74 1014.18 1013.55 1012.52 1011.72 1011.52 1011.30 1011.30 1011.19 1010.63 1009.72 1008.43 1008.51 1008.72 1008.63 1008.17 1007.59 1006.92 1006.30 1005.86 1005.38 1004.82 1004.93 1004.94 1004.73 1004.19 1003.63 1004.05 1004.18 1003.27 1003.45 1003.64 1003.70 1003.56 1003.19 1002.54 1001.90 1002.34 1002.83 1003.13 1003.67 1004.40 1005.24
1016.58 1016.05 1015.09 1013.89 1011.47 1011.31 1011.57 1011.42 1011.44 1011.45 1010.85 1010.54 1010.02 1009.85 1009.70 1009.59 1009.16 1008.66 1008.10 1007.51 1007.04 1006.64 1005.67 1005.70 1005.43 1005.55 1004.97 1004.16 1004.62 1004.28 1004.07 1004.20 1004.33 1004.13 1003.90 1003.62 1003.19 1002.53 1002.26 1002.61 1003.06 1003.57 1004.18 1004.74
1016.37 1015.57 1015.14 1013.75 1012.53 1011.87 1011.84 1011.59 1011.76 1011.51 1011.08 1010.99 1010.72 1010.50 1010.23 1010.22 1009.90 1009.59 1008.98 1008.63 1008.08 1007.61 1006.37 1006.42 1006.88 1006.10 1004.18 1005.16 1005.43 1004.93 1004.83 1004.94 1004.93 1004.68 1004.24 1003.88 1003.53 1003.07 1002.66 1002.61 1003.03 1003.45 1004.01 1004.61
1015.99 1015.78 1016.06 1015.42 1013.87 1013.07 1012.33 1012.00 1011.99 1011.83 1011.78 1011.68 1011.73 1011.44 1010.97 1010.62 1010.63 1010.37 1010.06 1009.40 1008.86 1007.94 1008.11 1008.23 1007.47 1005.58 1005.71 1006.53 1006.10 1005.36 1005.46 1005.62 1005.53 1005.22 1004.78 1004.45 1004.19 1003.83 1003.50 1003.46 1003.48 1003.53 1003.83 1004.47
1016.00 1015.60 1015.65 1014.37 1013.53 1012.87 1012.25 1012.15 1012.17 1012.27 1012.40 1012.21 1012.06 1011.97 1012.01 1011.78 1011.53 1011.27 1011.24 1010.96 1010.62 1010.14 1009.48 1009.02 1008.07 1007.30 1008.08 1007.42 1006.01 1006.02 1006.32 1006.37 1006.15 1005.79 1005.40 1005.07 1004.70 1004.31 1004.03 1004.03 1004.04 1004.10 1004.31 1004.45
1016.24 1015.55 1015.00 1013.79 1012.50 1012.18 1012.18 1012.19 1012.15 1012.56 1012.72 1012.58 1012.40 1012.34 1012.51 1012.42 1012.51 1012.22 1011.74 1011.30 1010.97 1010.68 1010.26 1009.68 1009.24 1009.02 1008.26 1007.13 1007.25 1007.38 1007.34 1007.13 1006.80 1006.52 1006.21 1005.83 1005.39 1005.10 1004.91 1004.75 1004.66 1004.63 1004.76 1004.86
1015.98 1015.38 1015.01 1013.82 1012.67 1012.13 1012.19 1012.16 1012.34 1012.85 1013.31 1013.46 1013.32 1013.22 1012.93 1012.87 1013.20 1013.09 1012.86 1012.63 1012.37 1011.93 1011.35 1010.67 1010.14 1009.82 1009.27 1008.94 1008.64 1008.38 1008.17 1007.90 1007.65 1007.44 1007.06 1006.57 1006.21 1005.93 1005.72 1005.47 1005.24 1005.17 1005.20 1005.26
1015.23 1015.16 1015.03 1014.49 1013.25 1012.49 1012.11 1012.00 1012.23 1012.80 1013.57 1013.86 1013.90 1013.78 1013.53 1013.36 1013.73 1013.66 1013.69 1013.53 1013.20 1012.82 1012.31 1011.86 1011.44 1010.98 1010.32 1009.83 1009.47 1009.33 1009.03 1008.76 1008.67 1008.39 1007.98 1007.49 1007.05 1006.66 1006.34 1006.05 1005.87 1005.75 1005.66 1005.65
1014.96 1015.13 1015.12 1014.87 1014.21 1012.74 1012.15 1012.07 1012.46 1013.00 1013.86 1014.24 1014.45 1014.26 1013.88 1013.26 1013.65 1013.94 1014.14 1014.16 1014.05 1013.51 1013.01 1012.68 1012.23 1011.74 1011.22 1010.77 1010.38 1010.15 1009.90 1009.72 1009.53 1009.29 1008.98 1008.55 1008.05 1007.60 1007.18 1006.86 1006.58 1006.34 1006.18 1006.04
1015.05 1014.98 1015.39 1015.06 1014.46 1013.17 1012.08 1012.00 1012.20 1013.00 1013.91 1014.51 1014.68 1014.82 1014.69 1014.12 1014.93 1015.41 1015.25 1014.89 1014.80 1014.40 1013.85 1013.44 1012.77 1012.38 1011.99 1011.65 1011.26 1010.92 1010.78 1010.67 1010.42 1010.12 1009.75 1009.28 1008.78 1008.35 1008.05 1007.74 1007.35 1007.04 1006.74 1006.58
1015.80 1015.50 1015.24 1014.85 1014.39 1012.70 1011.92 1011.99 1012.35 1013.43 1014.42 1014.26 1014.52 1014.82 1014.99 1015.17 1015.53 1015.40 1015.30 1015.51 1015.17 1014.88 1014.59 1014.20 1013.83 1013.43 1013.03 1012.48 1011.88 1011.61 1011.54 1011.31 1011.16 1010.77 1010.33 1009.90 1009.40 1008.95 1008.64 1008.31 1007.92 1007.63 1007.39 1007.18
1015.60 1015.56 1014.89 1014.37 1014.07 1012.92 1011.88 1012.27 1012.90 1013.13 1013.63 1013.90 1014.07 1014.46 1014.82 1014.93 1015.23 1015.45 1015.35 1015.34 1015.23 1015.04 1014.73 1014.53 1014.38 1014.22 1013.83 1013.37 1012.99 1012.81 1012.51 1012.22 1011.61 1011.07 1010.69 1010.31 1009.94 1009.54 1009.20 1008.86 1008.52 1008.15 1007.92 1007.80
1013.96 1013.39 1013.31 1013.20 1012.20 1011.66 1011.72 1011.78 1012.04 1012.37 1013.01 1013.25 1013.38 1013.79 1014.12 1014.47 1014.83 1014.88 1015.04 1015.04 1014.94 1014.92 1014.98 1014.98 1014.85 1014.73 1014.42 1014.04 1013.74 1013.40 1013.13 1012.70 1012.06 1011.65 1011.26 1010.81 1010.34 1009.97 1009.63 1009.32 1009.03 1008.74 1008.39 1008.28
1011.93 1011.79 1011.97 1011.96 1010.99 1011.10 1011.20 1011.47 1011.84 1012.31 1012.46 1012.63 1012.98 1013.34 1013.64 1014.10 1014.46 1014.80 1014.91 1015.08 1015.18 1015.24 1015.33 1015.31 1015.16 1015.04 1014.82 1014.51 1014.24 1014.18 1013.75 1013.23 1012.73 1012.21 1011.75 1011.25 1010.81 1010.46 1010.13 1009.97 1009.66 1009.22 1008.94 1008.72
1010.74 1010.82 1010.69 1010.63 1009.91 1010.10 1010.22 1010.41 1011.01 1011.89 1012.30 1012.58 1012.99 1013.35 1013.72 1014.01 1014.40 1014.67 1014.98 1015.26 1015.47 1015.61 1015.69 1015.58 1015.47 1015.32 1015.07 1014.92 1014.64 1014.43 1014.16 1013.88 1013.41 1012.77 1012.06 1011.60 1011.17 1010.86 1010.49 1010.21 1009.88 1009.45 1009.10 1008.76
1009.74 1009.25 1009.53 1009.09 1008.76 1009.15 1009.23 1009.59 1010.41 1011.31 1011.91 1012.45 1012.93 1013.48 1013.81 1014.08 1014.47 1014.83 1015.15 1015.40 1015.75 1015.96 1015.82 1015.71 1015.91 1015.84 1015.63 1015.47 1014.92 1014.61 1014.38 1014.32 1013.83 1013.29 1012.72 1012.24 1011.74 1011.31 1010.89 1010.52 1010.14 1009.56 1009.12 1008.83
Wind_Speed
4 8 13 19 14 19 20 23 23 21 23 20 24 19 19 20 19 21 19 19 21 23 18 11 11 13 8 10 13 13 14 15 11 9 9 10 11 10 10 9 13 16 14 14
7 11 18 10 14 18 18 20 24 24 21 17 20 22 16 19 18 19 17 19 15 14 22 19 18 11 11 12 17 17 17 16 14 11 9 5 8 8 11 9 10 12 14 16
8 19 20 18 14 21 17 16 22 23 23 19 18 19 19 20 17 18 20 17 15 17 14 13 17 17 15 15 16 17 17 19 17 16 9 6 7 5 6 7 8 11 15 16
10 7 9 17 19 17 18 10 14 20 13 13 5 15 20 16 20 16 18 16 14 14 14 14 10 15 17 18 14 17 16 17 17 17 15 16 13 10 7 10 11 11 14 14
14 21 21 19 14 15 17 13 20 22 14 8 12 8 20 9 18 18 16 15 15 15 13 15 13 9 10 12 14 13 16 17 16 17 16 14 13 10 7 10 12 13 12 13
15 9 13 10 8 15 20 16 17 12 2 6 23 9 19 5 15 16 15 12 11 17 16 14 15 9 8 7 5 8 13 17 17 17 18 18 17 13 10 12 11 11 11 11
20 3 10 5 13 12 7 10 5 6 3 9 5 8 16 17 16 15 10 12 6 8 9 13 14 5 2 4 5 7 8 11 15 17 16 17 16 16 15 14 12 13 11 10
5 24 8 11 14 7 11 3 6 7 7 18 10 6 6 10 14 15 14 12 14 14 16 16 15 10 11 13 12 9 9 5 8 16 16 14 15 11 10 12 11 11 12 12
8 13 19 14 4 3 8 4 5 7 6 9 4 4 10 21 18 17 16 15 15 13 15 16 14 10 11 12 11 9 9 9 9 9 3 8 8 10 12 13 12 10 10 10
5 19 7 6 8 2 6 5 7 4 7 7 5 5 7 19 19 16 15 13 12 10 15 13 11 12 10 10 7 8 9 9 7 8 6 6 9 9 9 6 12 13 11 11
10 5 11 7 2 9 6 3 2 4 4 4 7 3 4 10 10 12 12 11 11 10 9 9 8 7 7 9 8 5 9 8 8 6 6 7 8 9 8 9 7 7 7 9
6 5 5 12 19 7 5 5 2 3 6 4 4 3 8 11 11 12 13 14 12 10 11 9 9 6 5 11 10 9 10 8 7 7 5 5 6 6 8 8 6 7 10 11
6 3 9 10 8 4 3 7 7 11 6 4 3 3 8 9 11 12 13 13 12 13 14 12 7 5 15 11 9 10 9 8 7 6 5 4 5 5 3 4 5 7 8 9
6 2 6 11 17 11 14 14 6 4 2 4 2 6 12 13 14 13 14 14 13 15 14 10 10 14 13 9 8 10 10 8 7 6 5 5 5 4 4 4 2 4 7 9
2 6 4 15 17 15 16 6 4 3 5 3 4 1 8 8 12 12 10 11 11 11 13 12 13 12 9 8 11 10 9 8 7 7 7 7 6 5 4 4 3 4 3 4
6 10 3 18 10 7 3 1 3 2 4 3 7 2 7 6 7 10 13 13 13 12 12 13 12 11 11 13 11 9 8 9 8 8 8 7 7 7 6 4 3 2 3 4
5 4 0 7 4 8 2 2 3 2 2 2 3 4 7 4 7 9 10 10 11 10 10 11 12 11 10 10 9 9 9 8 9 9 9 9 7 7 6 5 3 2 1 2
3 3 1 6 7 3 2 2 2 4 3 2 3 5 8 5 5 10 9 9 9 10 9 9 9 9 10 9 9 8 9 10 9 10 10 10 8 7 6 5 5 3 2 1
11 3 3 1 2 5 3 3 2 4 4 2 2 6 5 9 4 4 10 8 9 10 8 7 8 8 9 10 8 8 9 9 9 9 9 8 8 7 7 7 5 4 2 2
2 3 3 3 2 4 5 3 4 3 3 4 2 3 5 5 3 4 7 6 7 7 8 9 9 9 9 10 8 8 9 8 9 9 8 7 6 6 5 5 5 3 3 3
4 4 6 6 4 7 4 4 3 3 6 4 3 4 0 3 4 5 4 4 2 2 5 5 6 7 9 10 8 9 9 10 8 6 5 6 6 5 5 5 4 3 3 4
6 3 3 2 2 6 4 1 4 5 2 5 4 4 2 3 3 1 1 2 3 4 6 8 6 6 6 8 7 7 9 8 8 6 6 5 5 5 4 4 4 4 3 4
2 7 4 7 8 5 5 6 3 4 5 4 4 4 4 4 2 3 3 5 6 6 5 4 4 5 4 5 4 6 7 7 8 6 5 5 5 5 5 4 4 3 3 3
4 4 3 3 5 5 5 3 5 5 5 4 4 4 3 4 4 4 4 4 4 4 5 4 5 6 6 5 6 4 7 8 6 5 5 4 4 5 4 3 3 2 2 2
4 5 4 6 9 2 5 7 10 8 4 5 5 4 5 6 4 3 2 3 3 3 2 2 4 5 7 6 6 4 6 5 6 5 5 5 3 3 3 2 2 2 1 1
5 6 5 7 7 6 3 7 11 11 10 8 8 6 4 4 4 2 2 1 2 4 4 5 5 5 6 6 6 6 5 4 4 4 4 4 3 3 2 2 2 5 3 3
Wind_Direction
308 293 267 273 255 254 268 272 275 269 274 267 270 271 268 266 271 280 296 266 249 250 263 273 251 237 230 192 177 174 166 173 167 178 167 172 169 167 168 178 173 170 163 159
321 261 267 278 301 281 278 275 276 278 271 265 265 273 278 280 275 268 269 271 283 286 251 249 268 258 222 206 192 181 176 170 172 175 180 168 175 178 169 180 167 172 165 160
245 267 291 291 284 292 280 267 266 264 283 273 269 276 271 263 261 260 259 251 251 261 265 262 245 246 239 206 193 189 180 175 176 175 169 141 163 160 177 168 170 175 177 175
279 268 285 293 290 291 289 311 307 303 269 270 157 281 257 250 261 255 264 246 232 242 248 255 251 249 228 211 191 182 185 181 181 175 173 172 175 188 191 181 178 178 184 182
263 298 295 300 279 287 287 288 297 291 271 285 254 259 275 260 262 255 251 245 231 231 234 243 237 229 237 199 186 179 174 177 183 177 185 182 187 186 163 177 178 182 179 180
267 276 280 242 291 315 290 298 283 276 121 250 258 191 284 266 264 271 263 247 239 228 238 242 247 196 210 167 157 160 159 176 182 184 184 190 190 179 167 172 178 182 181 181
319 243 291 297 345 323 0 307 309 352 344 238 335 228 251 0 2 343 318 303 276 13 340 246 247 198 276 166 159 167 166 172 186 189 190 192 191 179 180 177 181 178 182 189
322 322 1 315 304 277 307 262 332 309 287 295 289 238 83 31 7 5 17 33 25 28 34 26 20 38 45 36 29 40 41 66 188 191 196 198 196 194 188 184 182 187 190 190
325 286 309 291 263 178 325 2 259 272 253 262 247 43 233 10 11 10 1 18 27 16 39 24 16 26 42 36 30 26 40 33 28 22 292 199 189 201 195 188 189 187 187 188
254 296 298 282 356 313 332 324 334 337 310 310 306 73 349 354 356 353 352 4 14 16 42 22 21 16 33 48 33 26 43 36 10 359 350 330 194 196 201 192 193 191 185 176
272 217 281 4 280 273 331 336 293 264 240 254 332 59 356 350 343 349 347 1 17 18 34 24 16 19 27 46 29 19 39 28 16 357 343 327 327 198 186 194 181 174 149 158
231 254 279 259 288 233 189 356 328 287 296 276 241 85 354 356 356 357 4 5 16 17 20 18 12 1 54 50 26 29 27 22 359 342 328 311 301 289 180 187 175 160 172 169
294 249 311 330 353 350 27 335 319 295 238 251 306 317 348 13 10 5 5 7 7 17 28 21 353 6 44 39 28 33 26 11 352 335 338 357 357 350 291 181 165 163 158 169
335 261 213 276 278 283 296 311 313 308 347 327 299 313 340 358 11 8 8 3 6 17 14 9 359 27 33 19 24 34 25 10 355 353 9 22 15 10 29 18 67 154 160 164
244 266 218 265 264 275 278 266 284 27 301 36 302 284 350 359 5 357 4 12 13 16 19 13 13 25 16 12 29 27 23 14 6 16 19 13 1 7 31 46 69 78 85 150
306 268 300 293 294 235 223 253 351 337 320 314 332 314 5 353 10 9 3 6 13 13 12 11 11 9 8 16 18 16 18 17 16 25 22 12 15 14 12 19 38 86 130 135
242 243 330 267 295 301 122 269 266 173 272 269 357 305 323 349 22 18 10 6 9 7 0 6 7 4 7 8 9 20 17 17 22 22 19 16 16 21 14 5 24 64 140 137
245 300 218 273 340 4 225 203 227 155 200 290 278 312 318 310 161 52 23 8 7 2 4 4 7 6 4 6 28 25 25 28 22 18 17 14 11 18 17 22 23 15 27 139
208 237 276 262 218 270 163 263 167 171 219 233 276 317 315 319 172 36 12 11 3 359 6 5 8 6 4 8 15 33 33 28 22 17 12 5 9 16 16 21 11 7 23 32
128 188 202 349 249 257 232 250 187 135 276 205 160 292 328 357 65 277 315 336 344 354 357 2 9 16 22 8 13 31 30 25 21 8 1 357 360 13 15 6 8 1 19 31
334 340 215 244 276 290 235 230 157 69 245 196 190 186 21 117 193 238 331 344 336 334 329 1 2 20 5 359 10 28 20 17 357 352 353 359 358 2 5 359 358 4 24 51
174 144 237 61 37 292 169 171 175 206 215 166 173 183 171 221 294 283 353 15 15 9 0 11 16 9 351 2 14 19 18 345 337 349 358 360 0 1 2 24 357 8 42 52
288 186 189 171 221 228 213 206 216 165 153 200 168 182 186 149 124 89 55 31 24 23 8 359 2 342 344 1 20 8 350 345 344 348 348 344 356 1 358 13 4 15 27 56
260 170 202 54 272 227 207 205 170 180 183 161 156 155 139 134 120 97 81 46 24 13 5 351 356 2 352 352 2 350 343 341 337 338 332 324 360 352 360 353 342 12 21 65
200 154 193 257 276 287 227 200 176 179 179 151 148 159 161 144 135 118 93 52 16 348 333 340 346 339 330 334 328 327 344 339 342 329 336 346 342 342 342 342 312 342 318 338
190 216 188 221 221 212 237 191 162 171 185 179 163 157 164 146 139 110 90 41 352 333 339 351 332 316 310 304 306 319 325 341 344 330 335 331 326 316 309 327 309 339 353 349